When you browse on this site, cookies collect data to enhance your experience and personalize the content and advertising you see.
Visit our Privacy Policy to learn more. By continuing to use the site, you agree to this use of cookies and data.
  • In Schweiz
  • Länderverzeichnis
  • Für 7 Tage
  • Wassertemperatur
  • Wetterkarte
  • Widgets
  • user-avatar
    Anmelden

    Stündliche Wetter Winchester

    Heute, 23 September, Montag

    Zeit Temperatur Niederschläge Wind Luftdruck Luftfeuchtigkeit
    00:00 +13°C° 0 mm 4 m/S 750 mmHg 94%
    01:00 +13°C° 0 mm 4 m/S 750 mmHg 94%
    02:00 +13°C° 0 mm 5 m/S 750 mmHg 93%
    03:00 +12°C° 0 mm 5 m/S 750 mmHg 93%
    04:00 +12°C° 0 mm 4 m/S 751 mmHg 93%
    05:00 +12°C° 0 mm 4 m/S 751 mmHg 93%
    06:00 +11°C° 0 mm 3 m/S 752 mmHg 92%
    07:00 +13°C° 0 mm 3 m/S 752 mmHg 86%
    08:00 +14°C° 0 mm 4 m/S 753 mmHg 80%
    09:00 +16°C° 0 mm 5 m/S 753 mmHg 74%
    10:00 +17°C° 0.2 mm 6 m/S 753 mmHg 74%
    11:00 +17°C° 0.2 mm 6 m/S 753 mmHg 73%
    12:00 +17°C° 0.2 mm 7 m/S 753 mmHg 72%
    13:00 +17°C° 0.3 mm 7 m/S 752 mmHg 75%
    14:00 +17°C° 0.3 mm 7 m/S 752 mmHg 78%
    15:00 +16°C° 0.3 mm 7 m/S 751 mmHg 81%
    16:00 +16°C° 1.2 mm 7 m/S 751 mmHg 85%
    17:00 +15°C° 1.2 mm 7 m/S 751 mmHg 89%
    18:00 +15°C° 1.2 mm 7 m/S 751 mmHg 93%
    19:00 +15°C° 0.4 mm 7 m/S 751 mmHg 94%
    20:00 +16°C° 0.4 mm 6 m/S 750 mmHg 94%
    21:00 +16°C° 0.4 mm 6 m/S 750 mmHg 95%
    22:00 +16°C° 0.1 mm 6 m/S 750 mmHg 95%
    23:00 +17°C° 0.1 mm 5 m/S 750 mmHg 95%

    Morgen, 24 September, Dienstag

    Zeit Temperatur Niederschläge Wind Luftdruck Luftfeuchtigkeit
    00:00 +17°C° 0.1 mm 5 m/S 749 mmHg 95%
    01:00 +17°C° 0.3 mm 5 m/S 749 mmHg 95%
    02:00 +17°C° 0.3 mm 5 m/S 748 mmHg 95%
    03:00 +17°C° 0.3 mm 5 m/S 748 mmHg 94%
    04:00 +16°C° 2.8 mm 6 m/S 747 mmHg 94%
    05:00 +16°C° 2.8 mm 6 m/S 746 mmHg 95%
    06:00 +16°C° 2.8 mm 6 m/S 745 mmHg 95%
    07:00 +16°C° 4.4 mm 6 m/S 745 mmHg 94%
    08:00 +16°C° 4.4 mm 6 m/S 745 mmHg 93%
    09:00 +16°C° 4.4 mm 6 m/S 745 mmHg 92%
    10:00 +17°C° 0.9 mm 6 m/S 745 mmHg 87%
    11:00 +19°C° 0.9 mm 6 m/S 745 mmHg 82%
    12:00 +20°C° 0.9 mm 6 m/S 745 mmHg 77%
    13:00 +18°C° 0.3 mm 7 m/S 745 mmHg 76%
    14:00 +18°C° 0.3 mm 7 m/S 745 mmHg 74%
    15:00 +17°C° 0.3 mm 7 m/S 745 mmHg 73%
    16:00 +16°C° 0.1 mm 7 m/S 745 mmHg 77%
    17:00 +15°C° 0.1 mm 6 m/S 745 mmHg 80%
    18:00 +15°C° 0.1 mm 6 m/S 746 mmHg 84%
    19:00 +14°C° 0.1 mm 6 m/S 746 mmHg 84%
    20:00 +14°C° 0.1 mm 5 m/S 746 mmHg 85%
    21:00 +14°C° 0.1 mm 5 m/S 746 mmHg 85%
    22:00 +14°C° 0.8 mm 6 m/S 745 mmHg 88%
    23:00 +14°C° 0.8 mm 7 m/S 745 mmHg 90%

    übermorgen, 25 September, Mittwoch

    Zeit Temperatur Niederschläge Wind Luftdruck Luftfeuchtigkeit
    00:00 +14°C° 0.8 mm 7 m/S 744 mmHg 92%
    01:00 +14°C° 0.5 mm 7 m/S 744 mmHg 91%
    02:00 +14°C° 0.5 mm 7 m/S 744 mmHg 91%
    03:00 +14°C° 0.5 mm 6 m/S 743 mmHg 90%
    04:00 +14°C° 0.8 mm 7 m/S 743 mmHg 91%
    05:00 +13°C° 0.8 mm 8 m/S 743 mmHg 91%
    06:00 +13°C° 0.8 mm 9 m/S 743 mmHg 92%
    07:00 +15°C° 0.7 mm 8 m/S 743 mmHg 91%
    08:00 +15°C° 0.7 mm 8 m/S 744 mmHg 90%
    09:00 +15°C° 0.7 mm 7 m/S 744 mmHg 89%
    10:00 +16°C° 0.2 mm 8 m/S 744 mmHg 87%
    11:00 +16°C° 0.2 mm 8 m/S 745 mmHg 85%
    12:00 +17°C° 0.2 mm 8 m/S 746 mmHg 83%
    13:00 +17°C° 0.1 mm 8 m/S 746 mmHg 81%
    14:00 +17°C° 0.1 mm 7 m/S 746 mmHg 79%
    15:00 +18°C° 0.1 mm 7 m/S 746 mmHg 77%
    16:00 +17°C° 0 mm 6 m/S 747 mmHg 80%
    17:00 +16°C° 0 mm 5 m/S 747 mmHg 84%
    18:00 +15°C° 0 mm 4 m/S 747 mmHg 87%
    19:00 +14°C° 0 mm 4 m/S 748 mmHg 90%
    20:00 +14°C° 0 mm 4 m/S 748 mmHg 92%
    21:00 +14°C° 0 mm 4 m/S 748 mmHg 94%
    22:00 +14°C° 0.1 mm 4 m/S 748 mmHg 95%
    23:00 +15°C° 0.1 mm 5 m/S 748 mmHg 95%

    26 September, Donnerstag

    Zeit Temperatur Niederschläge Wind Luftdruck Luftfeuchtigkeit
    00:00 +16°C° 0.1 mm 5 m/S 748 mmHg 95%
    01:00 +16°C° 0.2 mm 5 m/S 748 mmHg 94%
    02:00 +16°C° 0.2 mm 6 m/S 748 mmHg 93%
    03:00 +16°C° 0.2 mm 6 m/S 748 mmHg 92%
    04:00 +16°C° 0.3 mm 7 m/S 748 mmHg 92%
    05:00 +16°C° 0.3 mm 7 m/S 748 mmHg 91%
    06:00 +16°C° 0.3 mm 7 m/S 748 mmHg 91%
    07:00 +16°C° 0.1 mm 7 m/S 748 mmHg 91%
    08:00 +16°C° 0.1 mm 7 m/S 748 mmHg 91%
    09:00 +17°C° 0.1 mm 7 m/S 749 mmHg 91%
    10:00 +17°C° 0.9 mm 6 m/S 749 mmHg 87%
    11:00 +17°C° 0.9 mm 6 m/S 749 mmHg 83%
    12:00 +17°C° 0.9 mm 6 m/S 749 mmHg 78%
    13:00 +17°C° 0.1 mm 6 m/S 749 mmHg 76%
    14:00 +17°C° 0.1 mm 6 m/S 749 mmHg 74%
    15:00 +17°C° 0.1 mm 6 m/S 749 mmHg 72%
    16:00 +16°C° 0.2 mm 6 m/S 749 mmHg 75%
    17:00 +15°C° 0.2 mm 6 m/S 750 mmHg 77%
    18:00 +14°C° 0.2 mm 6 m/S 750 mmHg 80%
    19:00 +14°C° 0 mm 5 m/S 750 mmHg 82%
    20:00 +13°C° 0 mm 5 m/S 750 mmHg 83%
    21:00 +12°C° 0 mm 4 m/S 751 mmHg 85%
    22:00 +12°C° 0 mm 4 m/S 751 mmHg 86%
    23:00 +12°C° 0 mm 4 m/S 751 mmHg 86%

    27 September, Freitag

    Zeit Temperatur Niederschläge Wind Luftdruck Luftfeuchtigkeit
    00:00 +12°C° 0 mm 4 m/S 750 mmHg 87%
    01:00 +12°C° 0.1 mm 4 m/S 750 mmHg 88%
    02:00 +12°C° 0.1 mm 4 m/S 750 mmHg 88%
    03:00 +12°C° 0.1 mm 4 m/S 750 mmHg 89%
    04:00 +12°C° 0 mm 4 m/S 750 mmHg 89%
    05:00 +11°C° 0 mm 4 m/S 750 mmHg 88%
    06:00 +10°C° 0 mm 5 m/S 750 mmHg 88%
    07:00 +12°C° 0 mm 5 m/S 750 mmHg 84%
    08:00 +14°C° 0 mm 6 m/S 750 mmHg 80%
    09:00 +15°C° 0 mm 7 m/S 750 mmHg 76%
    10:00 +15°C° 0.2 mm 7 m/S 750 mmHg 76%
    11:00 +15°C° 0.2 mm 8 m/S 750 mmHg 76%
    12:00 +15°C° 0.2 mm 8 m/S 750 mmHg 76%
    13:00 +15°C° 0.4 mm 8 m/S 750 mmHg 76%
    14:00 +15°C° 0.4 mm 8 m/S 750 mmHg 77%
    15:00 +15°C° 0.4 mm 8 m/S 750 mmHg 77%
    16:00 +14°C° 0.2 mm 7 m/S 750 mmHg 79%
    17:00 +14°C° 0.2 mm 7 m/S 750 mmHg 80%
    18:00 +13°C° 0.2 mm 6 m/S 750 mmHg 82%
    19:00 +13°C° 0 mm 6 m/S 750 mmHg 83%
    20:00 +11°C° 0 mm 6 m/S 750 mmHg 84%
    21:00 +11°C° 0 mm 6 m/S 750 mmHg 85%
    22:00 +11°C° 0 mm 6 m/S 750 mmHg 84%
    23:00 +10°C° 0 mm 6 m/S 750 mmHg 84%

    28 September, Samstag

    Zeit Temperatur Niederschläge Wind Luftdruck Luftfeuchtigkeit
    00:00 +10°C° 0 mm 6 m/S 751 mmHg 84%
    01:00 +10°C° 0 mm 6 m/S 751 mmHg 85%
    02:00 +10°C° 0 mm 6 m/S 751 mmHg 86%
    03:00 +11°C° 0 mm 6 m/S 750 mmHg 86%
    04:00 +11°C° 0 mm 6 m/S 751 mmHg 87%
    05:00 +11°C° 0 mm 6 m/S 751 mmHg 87%
    06:00 +11°C° 0 mm 6 m/S 751 mmHg 87%
    07:00 +12°C° 0 mm 7 m/S 751 mmHg 84%
    08:00 +14°C° 0 mm 7 m/S 751 mmHg 80%
    09:00 +15°C° 0 mm 8 m/S 752 mmHg 76%
    10:00 +15°C° 0.1 mm 8 m/S 752 mmHg 77%
    11:00 +15°C° 0.1 mm 8 m/S 752 mmHg 77%
    12:00 +15°C° 0.1 mm 8 m/S 752 mmHg 78%
    13:00 +15°C° 0.1 mm 7 m/S 752 mmHg 77%
    14:00 +15°C° 0.1 mm 7 m/S 752 mmHg 75%
    15:00 +15°C° 0.1 mm 7 m/S 752 mmHg 74%
    16:00 +14°C° 0 mm 6 m/S 752 mmHg 77%
    17:00 +14°C° 0 mm 5 m/S 752 mmHg 79%
    18:00 +13°C° 0 mm 5 m/S 752 mmHg 81%
    19:00 +13°C° 0 mm 5 m/S 752 mmHg 82%
    20:00 +12°C° 0 mm 5 m/S 752 mmHg 83%
    21:00 +12°C° 0 mm 4 m/S 752 mmHg 84%
    22:00 +12°C° 0 mm 4 m/S 752 mmHg 85%
    23:00 +11°C° 0 mm 4 m/S 752 mmHg 86%
    Mehr zeigen